DW9837 Weather Reports


Display with metric or nautical units.
time (UTC)temp
F
wind
direction
speed
MPH
gust
MPH
rain 1hr
in
rain 24hr
in
rain mn
in
humidity
%
barometer
mb
20260902023014 62 99 2.0 6.0 0.01 0.14 0.14 95 1018.4
20260902021514 62 92 0.0 3.0 0.01 0.14 0.14 95 1018.3
20260902020020 62 20 0.0 5.0 0.01 0.14 0.14 95 1017.9
20260902014514 62 85 2.0 7.0 0.01 0.14 0.14 95 1017.6
20260902013012 62 77 1.0 7.0 0.00 0.13 0.13 95 1017.4
20260902011512 62 114 2.0 6.0 0.00 0.13 0.13 94 1017.3
20260902010017 62 112 0.0 6.0 0.00 0.13 0.13 93 1017.0
20260902004510 62 116 0.0 3.0 0.00 0.13 0.13 93 1017.3
20260902003010 62 98 2.0 8.0 0.00 0.13 0.13 93 1017.5
20260902001509 62 90 0.0 5.0 0.00 0.13 0.13 93 1017.3
20260902000008 62 98 1.0 6.0 0.00 0.13 0.13 93 1017.3
20260901234507 62 74 2.0 9.0 0.00 0.13 0.13 93 1017.1
20260901233011 62 116 1.0 7.0 0.00 0.13 0.13 92 1017.1
20260901231503 62 114 2.0 7.0 0.00 0.13 0.13 92 1017.0
20260901230002 63 170 3.0 10.0 0.00 0.13 0.13 92 1017.0
20260901224502 63 327 1.0 6.0 0.00 0.13 0.13 91 1016.8
20260901223000 63 85 3.0 7.0 0.00 0.13 0.13 91 1016.9
20260901221603 63 120 0.0 8.0 0.00 0.13 0.13 91 1016.8
20260901221500 63 121 1.0 8.0 0.00 0.13 0.13 91 1016.8
20260901220059 63 92 2.0 6.0 0.00 0.13 0.13 91 1016.7
20260901214602 63 112 3.0 9.0 0.00 0.13 0.13 90 1016.7
20260901213114 63 104 4.0 8.0 0.01 0.13 0.13 90 1016.8
20260901211558 63 89 1.0 8.0 0.01 0.13 0.13 91 1016.8
20260901210057 64 90 2.0 7.0 0.01 0.13 0.13 90 1016.5
20260901204556 64 80 1.0 7.0 0.01 0.13 0.13 89 1016.4
20260901203113 65 78 0.0 9.0 0.00 0.12 0.12 86 1016.2
20260901201555 65 90 2.0 8.0 0.00 0.12 0.12 85 1016.0
20260901200054 66 71 1.0 6.0 0.00 0.12 0.12 85 1016.0
20260901194558 66 88 3.0 6.0 0.00 0.12 0.12 84 1016.0
20260901193100 66 90 3.0 8.0 0.00 0.12 0.12 83 1015.9
20260901191554 66 53 0.0 5.0 0.00 0.12 0.12 85 1015.8
20260901190106 66 175 1.0 6.0 0.00 0.12 0.12 87 1015.8
20260901184553 65 195 3.0 13.0 0.00 0.12 0.12 89 1015.6
20260901183053 65 187 1.0 5.0 0.00 0.12 0.12 92 1015.8
20260901181550 64 232 0.0 5.0 0.00 0.12 0.12 94 1016.0
20260901180049 64 76 1.0 7.0 0.00 0.12 0.12 94 1015.8
20260901174548 64 189 4.0 12.0 0.00 0.12 0.12 94 1016.1
20260901173047 63 149 3.0 9.0 0.00 0.12 0.12 94 1016.1
20260901171603 63 194 2.0 8.0 0.00 0.12 0.12 93 1016.2
20260901170048 64 227 3.0 11.0 0.00 0.12 0.12 93 1016.2
20260901164544 64 127 0.0 11.0 0.00 0.12 0.12 92 1016.0
20260901163038 66 137 3.0 9.0 0.00 0.12 0.12 91 1016.3
20260901161538 69 44 1.0 7.0 0.00 0.12 0.12 94 1016.3
20260901160038 69 135 1.0 3.0 0.00 0.12 0.12 94 1016.3
20260901154533 69 107 0.0 5.0 0.01 0.12 0.12 94 1016.3
20260901153033 68 139 1.0 4.0 0.04 0.12 0.12 94 1016.3
20260901151533 68 180 1.0 4.0 0.08 0.12 0.12 94 1016.4
20260901150032 68 188 0.0 2.0 0.10 0.12 0.12 94 1016.6
20260901144534 68 76 0.0 2.0 0.09 0.11 0.11 94 1016.6
20260901143033 68 156 1.0 3.0 0.07 0.08 0.08 93 1016.3
20260901141535 69 105 2.0 5.0 0.04 0.04 0.04 93 1016.3
20260901140026 69 175 1.0 3.0 0.02 0.02 0.02 93 1016.2
20260901134524 69 116 0.0 3.0 0.02 0.02 0.02 92 1016.2
20260901133024 69 61 0.0 4.0 0.01 0.01 0.01 92 1016.4
20260901131523 69 322 0.0 4.0 0.00 0.00 0.00 91 1016.6
20260901130022 69 139 2.0 5.0 0.00 0.00 0.00 90 1016.5
20260901124521 69 180 2.0 5.0 0.00 0.00 0.00 91 1016.3
20260901123024 70 173 1.0 6.0 0.00 0.00 0.00 91 1016.5
20260901121520 70 184 2.0 6.0 0.00 0.00 0.00 91 1016.4
20260901120019 70 237 2.0 4.0 0.00 0.00 0.00 89 1016.6
20260901114519 70 179 0.0 4.0 0.00 0.00 0.00 87 1016.7
20260901113019 69 143 1.0 3.0 0.00 0.00 0.00 87 1016.6
20260901111519 69 139 0.0 2.0 0.00 0.00 0.00 89 1016.6
20260901110018 70 342 0.0 1.0 0.00 0.00 0.00 90 1016.8
20260901104517 70 26 0.0 1.0 0.00 0.00 0.00 91 1016.6
20260901103016 70 153 0.0 2.0 0.00 0.00 0.00 91 1016.5
20260901101517 70 157 0.0 3.0 0.00 0.00 0.00 91 1016.5
20260901100014 70 178 0.0 1.0 0.00 0.00 0.00 91 1016.3
20260901094512 70 156 0.0 3.0 0.00 0.00 0.00 91 1016.2
20260901093009 70 192 0.0 3.0 0.00 0.00 0.00 91 1016.3
20260901091508 70 135 0.0 2.0 0.00 0.00 0.00 91 1016.5
20260901090006 70 164 1.0 2.0 0.00 0.00 0.00 90 1016.6
20260901084503 70 156 1.0 3.0 0.00 0.00 0.00 90 1016.6
20260901083002 70 167 0.0 2.0 0.00 0.00 0.00 90 1016.7
20260901081559 70 156 0.0 1.0 0.00 0.00 0.00 90 1016.9
20260901080058 69 144 0.0 0.0 0.00 0.00 0.00 90 1017.0
20260901074606 69 144 0.0 1.0 0.00 0.00 0.00 90 1016.9
20260901073054 69 151 0.0 1.0 0.00 0.00 0.00 89 1017.0
20260901071552 69 140 0.0 1.0 0.00 0.00 0.00 89 1016.9
20260901070048 69 135 0.0 1.0 0.00 0.00 0.00 89 1017.0
20260901064545 69 146 0.0 1.0 0.00 0.00 0.00 88 1017.2
20260901063044 69 137 0.0 1.0 0.00 0.00 0.00 88 1017.2
20260901061538 70 137 0.0 1.0 0.00 0.00 0.00 87 1017.5
20260901060037 70 147 0.0 1.0 0.00 0.00 0.00 86 1017.7
20260901054538 69 159 0.0 1.0 0.00 0.00 0.00 86 1017.7
20260901053035 69 150 0.0 1.0 0.00 0.00 0.00 86 1017.6
20260901051536 69 177 0.0 1.0 0.00 0.00 0.00 86 1017.8
20260901050033 69 178 0.0 1.0 0.00 0.00 0.00 86 1018.0
20260901044532 69 174 0.0 1.0 0.00 0.01 0.00 85 1018.1
20260901043031 69 239 0.0 1.0 0.00 0.01 0.00 85 1018.2
20260901041531 70 144 0.0 1.0 0.00 0.01 0.00 85 1018.3
20260901040027 70 180 0.0 1.0 0.00 0.01 0.00 84 1018.4
20260901034530 70 175 0.0 1.0 0.00 0.02 0.01 83 1018.3
20260901033027 70 155 0.0 2.0 0.00 0.02 0.01 82 1018.4
20260901031531 69 168 0.0 3.0 0.00 0.02 0.01 82 1018.4
20260901030025 69 151 0.0 2.0 0.00 0.02 0.01 82 1018.4
20260901024525 69 154 0.0 2.0 0.00 0.02 0.01 82 1018.3